Weather in Revda

Russia / Sverdlovsk Oblast     56°48′00″N   59°54′31″E
temp.,
°C
wind,
m/s
gust,
m/s
humid.,
%
clouds,
%
prec.,
mm/h
press.,
hPa
HPBL,
m
16 may, sun
sun1623:00+16sw1177100 0.9 102016
02:00+16sw2177100 0.1 102019
05:00+15wsw31174100 0.1 1020199
08:00+21wsw4115456 0.0 1020406
11:00+27w583329 0.0 10191291
14:00+30w58205 0.0 10193611
17:00+30w58218 0.0 10183837
20:00+24wsw410350 0.0 1018328
17 may, mon
mon1723:00+18wsw310515 0.0 1018180
02:00+17sw311605 0.0 1018191
05:00+17sw312542 0.0 1019221
08:00+22wsw5134435 0.0 1018607
11:00+27w6132640 0.0 10172778
14:00+29w7112296 0.0 10173611
17:00+28w6112755 0.0 10163807
20:00+24w5104027 0.0 1015859
18 may, tue
tue1823:00+19wsw311589 0.1 1016289
02:00+15w238143 0.2 101650
05:00+14w38830 0.2 1016181
08:00+18wnw48613 0.0 1016499
11:00+22nw584226 0.0 10162214
14:00+23n693984 0.0 10162311
17:00+18nne67531 0.0 10191193
20:00+15nne47580 0.0 10211041
19 may, wed
wed1923:00+10ne49760 0.0 1024648
02:00+10e487299 0.0 1025834
05:00+10ene3667100 0.0 1026870
08:00+11e3560100 0.0 1026741
11:00+16ese3339100 0.0 10261044
14:00+20e2230100 0.0 10251370
17:00+21ese22295 0.0 10241570
20:00+17se224585 0.0 102324
20 may, thu
thu2023:00+11ssw22595 0.0 102427
02:00+10ssw22625 0.0 102513
05:00+9ssw22645 0.0 102521
08:00+16wsw23437 0.0 1024313
11:00+22w332937 0.0 10231345
14:00+25w33255 0.0 10221933
17:00+25w34255 0.0 10202090
20:00+20w22455 0.0 102048